Location: Antoign�
(47.0844°N, 0.1131°W)
Time: 21:04:36
(UTC+00:00)

Terra - Pass Details

Date: 03 March 2021
Orbit: 701 x 703 km, 98.2° (Epoch: 14 April)

Event Time Altitude Azimuth Distance (km) Brightness Sun altitude
Exits shadow 21:21:34 12° 1° (N) 2,032 4.5 -35.5°
Drops below altitude 10° 21:21:57 10° 359° (N) 2,171 4.7 -35.5°
Sets 21:24:20 0° 353° (N) 3,106 5.7 -35.8°
